Weather Service Report


716 
ASUS45 KBOI 030210
RWRID 

IDAHO REGIONAL WEATHER ROUNDUP
NATIONAL WEATHER SERVICE BOISE ID
700 PM MST FRI DEC 02 2016

NOTE: "FAIR" INDICATES FEW OR NO CLOUDS BELOW 12000 FEET
WITH NO SIGNIFICANT WEATHER AND/OR OBSTRUCTIONS TO VISIBILITY

IDZ012-014-030300-
SOUTHWEST IDAHO

  
CITY           SKY/WX    TMP DP  RH WIND       PRES   REMARKS
BOISE          CLOUDY    34  24  67 SE7       30.33F WCI  28          
CALDWELL       CLOUDY    36  26  67 E6        30.34F WCI  31          
MOUNTAIN HOME  CLOUDY    30  25  81 CALM      30.34S                  
$$

IDZ016-017-030300-
SOUTHCENTRAL IDAHO

  
CITY           SKY/WX    TMP DP  RH WIND       PRES   REMARKS
BURLEY         PTCLDY    26  21  81 W5        30.29R WCI  20          
JEROME         CLOUDY    24  23  96 CALM      30.31R                  
TWIN FALLS     CLOUDY    25  21  85 S8        30.30S WCI  16          
$$

IDZ019>023-030300-
SOUTHEAST IDAHO

  
CITY           SKY/WX    TMP DP  RH WIND       PRES   REMARKS
IDAHO FALLS    CLOUDY    24  18  77 S10       30.27F WCI  14          
POCATELLO      CLOUDY    26  21  81 S7        30.28F WCI  18          
REXBURG        CLOUDY    22  18  85 SW6       30.26F WCI  14          
$$

IDZ006-010-011-018-031-032-030300-
CENTRAL IDAHO MOUNTAINS

  
CITY           SKY/WX    TMP DP  RH WIND       PRES   REMARKS
MCCALL         CLOUDY    22  17  81 CALM      30.21F                  
HAILEY         CLOUDY    21  19  93 CALM      30.24F                  
STANLEY          N/A     23  12  62 CALM      30.18F                  
SALMON         CLOUDY    30  18  59 CALM      30.16F                  
CHALLIS        CLOUDY    28  19  69 CALM      30.16F                  
$$

IDZ002-004-006-007-026-030300-
NORTHERN IDAHO

  
CITY           SKY/WX    TMP DP  RH WIND       PRES   REMARKS
LEWISTON       CLOUDY    42  28  57 S14       30.17F                  
LOWELL           N/A     37  34  89 CALM      30.25F                  
COEUR D'ALENE  LGT SNOW  33  32  96 S9        30.13F FOG     WCI  25  
MULLAN PASS    MIX PCPN  21  19  92 VRB7      30.03F FOG     WCI  12  
$$
  

Return to Home page


Western Regional Climate Center, wrcc@dri.edu